User: anonymous   Login
Location: Unspecified
(0.0000°N, 0.0000°E)
Time: 00:15:25
(UTC+00:00)
Language:

Resurs 1-4 - Orbit

View from above orbital plane
View from above orbital plane
View from above satellite
View from above satellite

Ground track
Ground track

The orbit data is extracted from the following two-line orbital elements,

1 25394U 98043A   17326.46143742 -.00000028 +00000-0 +63911-5 0  9993
2 25394 098.5769 266.2230 0001304 152.1678 207.9572 14.24453733006877
Epoch (UTC): 22 November 2017 11:04:28
Eccentricity: 0.0001304
inclination: 98.5769°
perigee height: 809 km
apogee height: 811 km
right ascension of ascending node: 266.2230°
argument of perigee: 152.1678°
revolutions per day: 14.24453733
mean anomaly at epoch: 207.9572°
orbit number at epoch: 687

The dashed part of the orbit path shows where the satellite is in the earth's shadow,  

DLR